Location: Asheville, NC
(35.6000°N, 82.5500°W)
Time: 17:08:13
(UTC-04:00)

Vanguard 1 - All Passes

Search period start: 18 June 2018 00:00
Search period end: 28 June 2018 00:00
Orbit: 650 x 3833 km, 34.3° (Epoch: 17 June)

Date Brightness Start Highest point End Pass type
(mag) Time Alt. Az. Time Alt. Az. Time Alt. Az.
18 Jun - 06:55:26 10° SSW 07:04:52 45° SE 07:21:23 10° ENE daylight
18 Jun - 09:14:26 10° WSW 09:27:51 81° SSE 09:50:31 10° E daylight
18 Jun - 11:36:15 10° W 11:54:33 84° S 12:18:30 10° ESE daylight
18 Jun - 14:00:17 10° WNW 14:21:36 59° SSW 14:42:28 10° SE daylight
18 Jun - 16:28:56 10° W 16:45:39 26° SW 16:59:55 10° S daylight
19 Jun - 05:01:21 10° SSE 05:06:03 15° SE 05:12:07 10° E visible
19 Jun - 07:15:43 10° SW 07:25:32 56° SSE 07:43:21 10° ENE daylight
19 Jun - 09:35:25 10° WSW 09:49:20 85° S 10:12:24 10° E daylight
19 Jun - 11:57:30 10° W 12:16:13 79° SSW 12:39:57 10° ESE daylight
19 Jun - 14:21:54 10° WNW 14:42:44 51° SW 15:02:49 10° SSE daylight
19 Jun - 16:53:00 10° W 17:06:08 19° SW 17:17:46 10° SSW daylight
20 Jun - 05:19:51 10° S 05:26:10 23° SE 05:35:34 10° E visible
20 Jun - 07:36:14 10° SW 07:46:25 66° SSE 08:05:14 10° ENE daylight
20 Jun - 09:56:28 10° W 10:10:54 86° S 10:34:16 10° E daylight
20 Jun - 12:18:46 10° W 12:37:48 73° SSW 13:01:12 10° ESE daylight
20 Jun - 14:43:44 10° W 15:03:43 42° SW 15:22:48 10° SSE daylight
20 Jun - 17:20:12 10° WSW 17:26:38 12° SW 17:32:41 10° SW daylight
21 Jun - 05:39:18 10° SSW 05:46:25 31° SE 05:58:05 10° E visible
21 Jun - 07:56:55 10° WSW 08:07:29 74° SSE 08:27:07 10° E daylight
21 Jun - 10:17:33 10° W 10:32:30 86° S 10:56:05 10° E daylight
21 Jun - 12:40:04 10° WNW 12:59:16 66° SSW 13:22:12 10° SE daylight
21 Jun - 15:05:55 10° W 15:24:35 34° SW 15:42:20 10° SSE daylight
22 Jun - 05:59:15 10° SSW 06:06:50 41° SE 06:20:11 10° ENE daylight
22 Jun - 08:17:45 10° WSW 08:28:43 81° SSE 08:49:00 10° E daylight
22 Jun - 10:38:40 10° W 10:54:06 83° S 11:17:48 10° ESE daylight
22 Jun - 13:01:26 10° WNW 13:20:37 58° SSW 13:42:55 10° SE daylight
22 Jun - 15:28:42 10° W 15:45:20 26° SW 16:01:13 10° S daylight
23 Jun - 04:06:28 10° SE 04:08:34 11° SE 04:10:57 10° ESE visible
23 Jun - 06:19:31 10° SW 06:27:27 52° SSE 06:42:04 10° ENE daylight
23 Jun - 08:38:39 10° W 08:50:03 84° S 09:10:56 10° E daylight
23 Jun - 10:59:47 10° W 11:15:40 78° SSW 11:39:21 10° ESE daylight
23 Jun - 13:22:56 10° W 13:41:51 50° SW 14:03:19 10° SSE daylight
23 Jun - 15:52:36 10° W 16:06:04 19° SW 16:19:01 10° SSW daylight
24 Jun - 04:24:04 10° S 04:28:44 18° SE 04:35:08 10° E visible
24 Jun - 06:40:01 10° SW 06:48:15 63° SSE 07:03:54 10° E daylight
24 Jun - 08:59:38 10° W 09:11:28 86° S 09:32:51 10° E daylight
24 Jun - 11:20:56 10° W 11:37:10 72° SSW 12:00:42 10° ESE daylight
24 Jun - 13:44:39 10° W 14:02:58 41° SW 14:23:18 10° SSE daylight
24 Jun - 16:19:19 10° WSW 16:26:48 12° SW 16:34:08 10° SSW daylight
25 Jun - 04:43:23 10° SSW 04:48:58 27° SE 04:57:39 10° E visible
25 Jun - 07:00:40 10° WSW 07:09:14 73° SSE 07:25:43 10° E daylight
25 Jun - 09:20:38 10° W 09:32:56 85° S 09:54:43 10° E daylight
25 Jun - 11:42:06 10° W 11:58:36 64° SSW 12:21:46 10° SE daylight
25 Jun - 14:06:44 10° W 14:24:00 33° SW 14:42:48 10° SSE daylight
26 Jun - 05:03:18 10° SSW 05:09:23 37° SE 05:19:40 10° E visible
26 Jun - 07:21:27 10° WSW 07:30:21 80° SSE 07:47:33 10° E daylight
26 Jun - 09:41:39 10° W 09:54:24 81° S 10:16:30 10° ESE daylight
26 Jun - 12:03:23 10° W 12:19:58 56° SSW 12:42:32 10° SE daylight
26 Jun - 14:29:25 10° W 14:44:58 26° SW 15:01:36 10° S daylight
27 Jun - 05:23:32 10° SW 05:29:57 49° SSE 05:41:28 10° E visible
27 Jun - 07:42:19 10° W 07:51:34 84° S 08:09:26 10° E daylight
27 Jun - 10:02:40 10° W 10:15:49 76° SSW 10:38:07 10° ESE daylight
27 Jun - 12:24:47 10° W 12:41:15 48° SSW 13:02:56 10° SSE daylight
27 Jun - 14:53:14 10° W 15:05:56 19° SW 15:19:15 10° S daylight
